Flag for Spain

Past Weather in Las Palmas, Canary Islands, Spain — Yesterday and Last 2 Weeks

Now
72 °F

Passing clouds.


Feels Like: 75 °F
Forecast: 80 / 74 °F
Wind: 33 mph from North

Location: Las Palmas De Gran Canaria / Gando

Current Time: Jul 5, 2020 at 2:51:58 am

Latest Report: Jul 5, 2020 at 1:30 am


Visibility: N/A

Pressure: 30.04 "Hg

Humidity: 69%

Dew Point: 61 °F

Location of Las PalmasLocation

Past Weather in Las Palmas — Graph

°F

Las Palmas Temperature Yesterday

Maximum temperature yesterday: 77 °F (at 12:00 pm)
Minimum temperature yesterday: 70 °F (at 4:00 am)
Average temperature yesterday: 73 °F

High & Low Weather Summary for the Past Weeks

 TemperatureHumidityPressure
High81 °F (Jun 25, 2:00 pm)88% (Jun 29, 10:30 am)30.21 "Hg (Jun 29, 10:30 am)
Low70 °F (Jun 22, 5:00 am)51% (Jun 20, 1:30 pm)29.95 "Hg (Jun 29, 7:00 pm)
Average74 °F66%30.06 "Hg
* Reported Jun 20 1:00 am — Jul 5 1:30 am, Las Palmas. Weather by CustomWeather, © 2020

Note: Actual official high and low records may vary slightly from our data, if they occured in-between our weather recording intervals... More about our weather records

Las Palmas Weather History for the Previous 24 Hours

Scroll right to see more
 ConditionsComfort  
Time TempWeatherWind HumidityBarometerVisibility
1:30 am
Sun, Jul 5
72 °FPassing clouds.33 mph69%30.04 "HgN/A
1:00 am72 °FPassing clouds.29 mph69%30.04 "HgN/A
12:30 am72 °FPassing clouds.33 mph69%30.01 "HgN/A
12:00 am72 °FPassing clouds.30 mph69%30.04 "HgN/A
11:30 pm
Sat, Jul 4
72 °FPassing clouds.35 mph73%30.01 "HgN/A
11:00 pm72 °FPassing clouds.33 mph69%30.01 "HgN/A
10:30 pm72 °FPassing clouds.32 mph69%30.01 "HgN/A
10:00 pm72 °FPassing clouds.33 mph69%30.01 "HgN/A
9:30 pm72 °FPassing clouds.33 mph69%30.01 "HgN/A
9:00 pm72 °FPassing clouds.32 mph73%30.01 "HgN/A
8:30 pm73 °FPassing clouds.30 mph69%30.01 "HgN/A
8:00 pm73 °FPassing clouds.33 mph69%30.01 "HgN/A
7:30 pm73 °FPassing clouds.33 mph65%30.01 "HgN/A
7:00 pm75 °FPassing clouds.31 mph65%30.04 "HgN/A
6:30 pm75 °FPassing clouds.35 mph65%30.04 "HgN/A
6:00 pm75 °FPassing clouds.35 mph65%30.04 "HgN/A
5:30 pm77 °FPassing clouds.35 mph61%30.04 "HgN/A
5:00 pm77 °FPassing clouds.35 mph61%30.04 "HgN/A
4:30 pm77 °FPassing clouds.37 mph61%30.07 "HgN/A
4:00 pm77 °FPassing clouds.37 mph57%30.07 "HgN/A
3:30 pm77 °FPassing clouds.38 mph57%30.07 "HgN/A
3:00 pm77 °FPassing clouds.36 mph61%30.07 "HgN/A
2:30 pm77 °FPassing clouds.36 mph61%30.07 "HgN/A
2:00 pm77 °FPassing clouds.39 mph57%30.07 "HgN/A
1:30 pm77 °FPassing clouds.33 mph57%30.09 "HgN/A
1:00 pm77 °FPassing clouds.35 mph61%30.09 "HgN/A
12:30 pm75 °FPassing clouds.37 mph65%30.09 "HgN/A
12:00 pm77 °FScattered clouds.35 mph61%30.09 "HgN/A
11:30 am75 °FScattered clouds.32 mph65%30.09 "HgN/A
11:00 am73 °FPartly sunny.32 mph69%30.09 "HgN/A
10:30 am73 °FPartly sunny.31 mph69%30.09 "HgN/A
10:00 am72 °FPartly sunny.32 mph73%30.09 "HgN/A
9:30 am72 °FPartly sunny.32 mph73%30.07 "HgN/A
9:00 am72 °FPartly sunny.31 mph73%30.07 "HgN/A
8:30 am70 °FScattered clouds.31 mph78%30.07 "HgN/A
8:00 am70 °FScattered clouds.28 mph78%30.04 "HgN/A
7:30 am70 °FScattered clouds.29 mph78%30.04 "HgN/A
7:00 am70 °FPassing clouds.28 mph78%30.04 "HgN/A
6:30 am70 °FPassing clouds.29 mph73%30.04 "HgN/A
6:00 am70 °FPartly cloudy.28 mph78%30.04 "HgN/A
5:30 am70 °FPartly cloudy.32 mph78%30.04 "HgN/A
5:00 am70 °FPartly cloudy.29 mph78%30.04 "HgN/A
4:30 am70 °FPartly cloudy.26 mph78%30.04 "HgN/A
4:00 am70 °FPartly cloudy.29 mph78%30.04 "HgN/A
3:30 am72 °FPartly cloudy.29 mph73%30.07 "HgN/A
3:00 am72 °FPartly cloudy.31 mph73%30.07 "HgN/A
2:30 am72 °FPassing clouds.30 mph73%30.09 "HgN/A
2:00 am72 °FPassing clouds.33 mph73%30.09 "HgN/A
Weather by CustomWeather, © 2020

See weather overview